OpenBCM V1.13 (Linux)

Packet Radio Mailbox

DB0FHN

[JN59NK Nuernberg]

 Login: GUEST





  
I0OJJ  > AMSAT    06.07.26 02:33l 325 Lines 15359 Bytes #999 (0) @ WW
BID : A5R83_I0OJJ
Read: OE5RCO DL5MBW DJ6UX GUEST
Subj: 2Line Orbital Elements
Path: DB0FHN<DB0RKB<DK0WUE<HB9ON<IK7NXU<IK6IHL<IZ3LSV<I0OJJ
Sent: 260706/0030z @:I0OJJ.ITA.EU [Rome] $:A5R83_I0OJJ

>From i0ojj@i0ojj.ampr.org Mon Jul  6 02:30:36 2026
Received: from i0ojj.ampr.org by i0ojj.ampr.org (JNOS2.0q.1) with SMTP
	id AA17064723 ; Mon, 06 Jul 2026 02:30:36 +0200
Received: by i0ojj.ampr.org with SMTP
	id AA17064720 ; Mon, 06 Jul 2026 02:27:02 +0200
Message-Id: <17064721@i0ojj.ampr.org>
>From: i0ojj@i0ojj.ampr.org

SB KEPS @ AMSAT  $ORB26187.1
2Line Orbital Elements 26187.AMSAT

QST de W1STR

AMSAT Orbital Elements for Amateur Satellites in TLE Format
>From Orbital Analysis Office
New England Sci-Tech STEM Education Center
Natick MA July 06, 2026
To all radio amateurs


These element sets describe the orbits of various satellites 
in use by the amateur radio community. For details see:
www.amsat.org/keplerian-elements-formats/

A daily update of element sets is available at:
www.amsat.org/tle/daily-bulletin.txt
or without bulletin text:
www.amsat.org/tle/dailytle.txt


AO-07
1 07530U 74089B   26186.51709045 -.00000046  00000-0  46007-5 0  9990
2 07530 101.9900 199.9546 0012665  96.2167  58.2844 12.53698433362816
UO-11
1 14781U 84021B   26185.87375082  .00001764  00000-0  18479-3 0  9998
2 14781  97.8067 151.2521 0008940 119.8400 240.3708 14.90831766259769
LO-19
1 20442U 90005G   26186.32180111  .00000161  00000-0  74195-4 0  9994
2 20442  98.8845 208.6267 0012124 148.3760 211.8155 14.34128934904999
AO-27
1 22825U 93061C   26186.18004384  .00000151  00000-0  74236-4 0  9992
2 22825  98.6873 253.5864 0009241  53.0213 307.1814 14.30947411709571
FO-29
1 24278U 96046B   26186.49872094 -.00000023  00000-0  10395-4 0  9992
2 24278  98.5225  32.8610 0350710  49.0522 314.0418 13.53274998475642
GO-32
1 25397U 98043D   26186.46803397  .00000082  00000-0  55820-4 0  9997
2 25397  99.0076 179.6883 0001883 130.3325 229.8018 14.24432096453937
ISS
1 25544U 98067A   26186.44376576  .00008907  00000-0  17013-3 0  9994
2 25544  51.6303 209.7275 0006728 258.7638 101.2595 15.48905966574589
NO-44
1 26931U 01043C   26186.45876824  .00000160  00000-0  90679-4 0  9998
2 26931  67.0487 197.0128 0006001 265.8664  94.1752 14.31962526293064
SO-50
1 27607U 02058C   26186.29437210  .00001271  00000-0  16659-3 0  9999
2 27607  64.5520  72.9616 0074805 259.0885 100.1798 14.83086679267146
CO-55
1 27844U 03031E   26186.02060450  .00000393  00000-0  18869-3 0  9992
2 27844  98.6737 194.3551 0010529 129.0136 231.1982 14.24347366194217
RS-22
1 27939U 03042A   26186.62008200  .00001158  00000-0  18648-3 0  9995
2 27939  98.3472  11.4996 0010493 204.5697 243.9808 14.73501686218269
CO-65
1 32785U 08021C   26186.41140489  .00007633  00000-0  47815-3 0  9997
2 32785  97.8292 168.2116 0007776 339.2260  20.8651 15.09640403987942
CO-66
1 32791U 08021J   26186.41148818  .00028464  00000-0  88139-3 0  9997
2 32791  97.7526 185.1871 0001927 181.2557 178.8680 15.33423851990088
RS-30
1 32953U 08025A   26186.60841715 -.00000127  00000-0 -97996-3 0  9997
2 32953  82.5055 343.9793 0018500 271.2876  88.6084 12.43179642821985
SRMSAT
1 37841U 11058D   26186.61154329  .00000404  00000-0  75655-4 0  9992
2 37841  19.9728 307.9551 0011863  46.8223  73.4725 14.11579637760426
ZACUBE-1
1 39417U 13066B   26186.47037739  .00004580  00000-0  35386-3 0  9998
2 39417  97.8030 148.8991 0043304 186.4218 173.6457 15.01296841683475
Delfi-N3xt
1 39428U 13066N   26186.31439062  .00010696  00000-0  92241-3 0  9996
2 39428  97.8321 106.6095 0075188 145.3546 215.2607 14.95276460677335
GOMX-1
1 39430U 13066Q   26186.50257543  .00002656  00000-0  40148-3 0  9998
2 39430  97.6471  25.8087 0129077  19.3036 341.2996 14.69524758672609
LO-74
1 39440U 13066AA  26186.28247977  .00007070  00000-0  64944-3 0  9999
2 39440  97.8914 135.3391 0056357 329.1937  30.5979 14.93923546679691
AO-73
1 39444U 13066AE  26185.88720520  .00011803  00000-0  72371-3 0  9990
2 39444  97.8283 157.7053 0037406 141.4256 218.9657 15.09718097682331
DTUSAT-2
1 40030U 14033W   26185.93729946  .00011990  00000-0  64036-3 0  9991
2 40030  98.0874 184.7942 0008462 162.8514 197.3004 15.15257817655379
LILACSAT-2
1 40908U 15049K   26186.58628251  .00020292  00000-0  33698-3 0  9997
2 40908  97.4624 224.1320 0007591 171.1055 189.0333 15.52101477598609
Horyu-4
1 41340U 16012D   26182.79199294  .04204222 -38650-5  11151-2 0  9996
2 41340  30.9791 330.1929 0008660 346.1826  13.8606 16.27112331573163
Lapan A3
1 41603U 16040E   26186.66172124  .00004577  00000-0  14475-3 0  9994
2 41603  97.1498 182.2020 0008643 317.4246  42.6326 15.33233837557645
CAS-2T
1 41847U 16066G   26186.17853427  .00001892  00000-0  27124-3 0  9992
2 41847  98.3815 261.7089 0342709  75.0754 288.8114 14.44754556507397
TechnoSat
1 42829U 17042E   26186.33359148  .00004648  00000-0  32996-3 0  9992
2 42829  97.4297 343.3035 0018234  35.7421 324.5022 15.05066778489437
AO-91
1 43017U 17073E   26186.13259934  .00011506  00000-0  50043-3 0  9990
2 43017  97.4674  52.9808 0148145 266.6103  91.8173 15.12968517468106
S-Net D
1 43186U 18014G   26186.27433500  .00008525  00000-0  43626-3 0  9997
2 43186  97.5341  90.9522 0006932 327.1488  32.9313 15.16855433461501
S-Net B
1 43187U 18014H   26186.28614187  .00008646  00000-0  44270-3 0  9991
2 43187  97.5346  90.9510 0007436 320.4689  39.6001 15.16824843461502
S-Net A
1 43188U 18014J   26186.27311248  .00008521  00000-0  43588-3 0  9996
2 43188  97.5357  91.1504 0007335 321.9490  38.1224 15.16864051461501
S-Net C
1 43189U 18014K   26186.29011141  .00008639  00000-0  44240-3 0  9994
2 43189  97.5374  91.2446 0008577 311.6281  48.4216 15.16816485460052
Ten-Koh
1 43677U 18084G   26186.03266030  .00003436  00000-0  25996-3 0  9991
2 43677  98.0741  19.1464 0010364  61.3165 298.9099 15.03006481418848
PO-101
1 43678U 18084H   26186.57522192  .00004119  00000-0  33122-3 0  9994
2 43678  98.1210  23.5861 0013094 113.7687 246.4910 15.00538406418973
QO-100
1 43700U 18090A   26186.58179850  .00000158  00000-0  00000-0 0  9992
2 43700   0.0159  65.5704 0002304  78.7208  14.5406  1.00274128 27867
MinXSS-2
1 43758U 18099A   26186.19734809  .00063773  00000-0  12021-2 0  9992
2 43758  97.4520 263.0247 0008012 191.1590 168.9483 15.48250325416912
AO-95
1 43770U 18099N   26186.09969103  .00021145  00000-0  79587-3 0  9990
2 43770  97.4372 246.2835 0006910 283.5806  76.4663 15.27119399415956
SNUSat 2
1 43782U 18099AA  26186.08486502  .00014927  00000-0  65283-3 0  9997
2 43782  97.4043 239.1954 0009203 225.1512 134.8977 15.22129634415754
SnugLite
1 43784U 18099AC  26186.09461882  .00021962  00000-0  81497-3 0  9996
2 43784  97.3852 240.2015 0002575 189.4987 170.6204 15.27598805416057
ITASat 1
1 43786U 18099AE  26186.13530182  .00011495  00000-0  54667-3 0  9992
2 43786  97.4014 237.2902 0010725 291.2868  68.7221 15.19295486415636
EAGLET 1
1 43790U 18099AJ  26186.57078084  .00005706  00000-0  32571-3 0  9991
2 43790  97.4214 235.7529 0009452 283.2086  76.8091 15.13084657415117
ESEO
1 43792U 18099AL  26186.34003347  .00001574  00000-0  11707-3 0  9995
2 43792  97.3955 222.9511 0010309 272.1807  87.8239 15.04300842414538
JO-97
1 43803U 18099AX  26186.16564302  .00029370  00000-0  88467-3 0  9992
2 43803  97.4114 249.0682 0005889 190.2408 169.8716 15.34276866416389
Suomi 100
1 43804U 18099AY  26186.14253124  .00020838  00000-0  74362-3 0  9997
2 43804  97.4171 246.4729 0009565 207.3764 152.6973 15.28858076416169
ISAT
1 43879U 18111D   26186.29838561  .00170123  00000-0  14475-2 0  9995
2 43879  97.5864 122.9582 0005765 157.4577 202.6939 15.69042494414004
UWE-4
1 43880U 18111E   26186.33025580  .00049245  00000-0  96102-3 0  9999
2 43880  97.5836 115.5710 0004694 237.8732 122.2062 15.47336071413581
Sparrow
1 43881U 18111F   26185.76850166  .00341074  00000-0  17118-2 0  9996
2 43881  97.6099 128.3553 0006410 141.9301 218.2420 15.80806889414149
Prox-1
1 44339U 19036A   26186.46360079  .00020513  00000-0  19883-2 0  9992
2 44339  23.9962 352.1261 0005255 251.3089 108.6841 14.91096410376202
Taurus 1
1 44530U 19059C   26186.59369803  .00008969  00000-0  14257-2 0  9999
2 44530  98.6435 352.5667 0007458 249.0046 111.0362 14.72305319361353
TO-108
1 44881U 19093C   26186.62284531  .00001883  00000-0  21825-3 0  9992
2 44881  97.7521 258.4052 0014405  31.8143 328.3940 14.86552746354153
RS-44
1 44909U 19096E   26186.29953042  .00000031  00000-0  69228-4 0  9993
2 44909  82.5235 327.6688 0218587 102.0130 260.5561 12.79749004304668
SALSAT
1 46495U 20068K   26186.45874269  .00010448  00000-0  36136-3 0  9991
2 46495  97.8857 190.6390 0008285 230.3359 129.7150 15.30074171318152
CSS (TIANHE-1)
1 48274U 21035A   26186.47173112  .00017207  00000-0  22709-3 0  9995
2 48274  41.4674 210.7645 0002947 269.5009  90.5491 15.57984335296028
CUTE
1 49263U 21088D   26186.23359753  .00492481  11236-3  81611-3 0  9997
2 49263  97.4074 287.3807 0002168 228.6341 131.4753 16.03066307265431
TeikyoSat 4
1 49396U 21102B   26186.08455933  .00003056  00000-0  19387-3 0  9992
2 49396  97.3662 214.8723 0010779 225.5072 134.5278 15.09576096255426
Z-Sat
1 49399U 21102E   26186.58522760  .00009062  00000-0  44190-3 0  9996
2 49399  97.3307 221.3507 0016601 177.0517 183.0818 15.18415806256233
KOSEN 1
1 49402U 21102H   26186.09744579  .00012951  00000-0  48797-3 0  9999
2 49402  97.3171 227.9080 0014946 139.6508 220.5843 15.27106683256751
HO-113
1 50466U 21131B   26186.65884556  .00000993  00000-0  32018-3 0  9997
2 50466  98.4986 278.9492 0005085  54.5691 305.5972 14.41376977237772
SNUGLITE 2
1 52899U 22065F   26186.34339896  .00001299  00000-0  25483-3 0  9992
2 52899  98.2225 331.1440 0006774 335.9985  24.0901 14.64383251213655
UmKA 1 (RS40S)
1 57172U 23091G   26186.58136605  .00008698  00000-0  39374-3 0  9994
2 57172  97.5033 245.2092 0013812  60.5152 299.7460 15.21046613166806
